timestamp,wind_dir_avg,wind_spd_avg,wind_spd_max_dir,wind_spd_gust,battery_voltage,lat,long
2023-01-17 00:04:00+00:00,62.0,3.93,63.0,5.41,12.01,47.59359,-54.27349
2023-01-17 00:14:00+00:00,60.0,4.58,55.0,5.62,12.01,47.59359,-54.27349
2023-01-17 00:24:00+00:00,79.0,3.88,111.0,5.65,12.01,47.59359,-54.27349
2023-01-17 00:34:00+00:00,94.0,4.61,90.0,8.36,12.01,47.59359,-54.27349
2023-01-17 00:44:00+00:00,129.0,6.99,125.0,8.25,12.01,47.59359,-54.27349
2023-01-17 00:54:00+00:00,137.0,7.68,142.0,9.03,12.01,47.59359,-54.27349
2023-01-17 01:04:00+00:00,141.0,6.0,141.0,7.2,12.01,47.59359,-54.27349
2023-01-17 01:14:01+00:00,158.0,5.32,162.0,6.2,12.01,47.59359,-54.27349
2023-01-17 01:24:01+00:00,157.0,8.4,162.0,9.55,12.01,47.59359,-54.27349
2023-01-17 01:34:01+00:00,156.0,10.38,157.0,11.67,12.01,47.59359,-54.27349
2023-01-17 01:44:01+00:00,166.0,11.44,171.0,13.5,12.01,47.59359,-54.27349
2023-01-17 01:54:01+00:00,163.0,11.54,160.0,12.87,12.01,47.59359,-54.27349
2023-01-17 02:04:01+00:00,164.0,9.9,170.0,11.28,12.01,47.59359,-54.27349
2023-01-17 02:14:00+00:00,162.0,11.78,162.0,13.12,12.01,47.59359,-54.27349
2023-01-17 02:24:00+00:00,160.0,11.01,159.0,13.19,12.01,47.59359,-54.27349
2023-01-17 02:34:00+00:00,161.0,11.81,164.0,13.49,12.01,47.59359,-54.27349
2023-01-17 02:44:00+00:00,158.0,11.52,158.0,13.25,12.01,47.59359,-54.27349
2023-01-17 02:54:00+00:00,160.0,10.82,156.0,13.21,12.01,47.59359,-54.27349
2023-01-17 03:04:00+00:00,158.0,9.95,162.0,12.12,12.01,47.59359,-54.27349
2023-01-17 03:14:00+00:00,161.0,10.54,165.0,11.42,12.01,47.59359,-54.27349
2023-01-17 03:24:00+00:00,163.0,10.38,161.0,11.15,12.01,47.59359,-54.27349
2023-01-17 03:34:00+00:00,157.0,10.36,157.0,11.61,12.01,47.59359,-54.27349
2023-01-17 03:44:00+00:00,158.0,9.7,154.0,10.77,12.01,47.59359,-54.27349
2023-01-17 03:54:00+00:00,160.0,9.03,162.0,11.13,12.01,47.59359,-54.27349
2023-01-17 04:04:00+00:00,159.0,9.33,162.0,10.38,12.01,47.59359,-54.27349
2023-01-17 04:14:00+00:00,158.0,10.62,161.0,11.49,12.01,47.59359,-54.27349
2023-01-17 04:24:00+00:00,160.0,9.85,161.0,10.62,12.01,47.59359,-54.27349
2023-01-17 04:34:00+00:00,160.0,10.66,160.0,12.14,12.01,47.59359,-54.27349
2023-01-17 04:44:00+00:00,162.0,12.72,165.0,14.6,12.01,47.59359,-54.27349
2023-01-17 04:54:00+00:00,162.0,11.0,165.0,12.49,12.01,47.59359,-54.27349
2023-01-17 05:04:00+00:00,164.0,12.65,163.0,14.48,12.01,47.59359,-54.27349
2023-01-17 05:14:01+00:00,165.0,11.08,165.0,12.62,12.01,47.59359,-54.27349
2023-01-17 05:24:01+00:00,164.0,12.25,163.0,13.22,12.01,47.59359,-54.27349
2023-01-17 05:34:01+00:00,166.0,12.62,166.0,13.66,12.01,47.59359,-54.27349
2023-01-17 05:44:01+00:00,163.0,12.81,163.0,15.39,12.01,47.59359,-54.27349
2023-01-17 05:54:01+00:00,166.0,12.02,162.0,14.2,12.01,47.59359,-54.27349
2023-01-17 06:04:01+00:00,166.0,12.5,164.0,13.74,12.01,47.59359,-54.27349
2023-01-17 06:14:01+00:00,169.0,11.17,171.0,13.4,12.01,47.59359,-54.27349
2023-01-17 06:24:01+00:00,172.0,11.2,175.0,12.55,12.01,47.59359,-54.27349
2023-01-17 06:34:01+00:00,174.0,10.12,171.0,11.23,12.01,47.59359,-54.27349
2023-01-17 06:44:01+00:00,180.0,9.75,175.0,11.6,12.01,47.59359,-54.27349
2023-01-17 06:54:01+00:00,189.0,7.6,190.0,9.06,12.01,47.59359,-54.27349
2023-01-17 07:04:01+00:00,186.0,7.9,184.0,9.53,12.01,47.59359,-54.27349
2023-01-17 07:14:00+00:00,175.0,8.03,169.0,9.23,12.01,47.59359,-54.27349
2023-01-17 07:24:00+00:00,176.0,8.07,173.0,9.08,12.01,47.59359,-54.27349
2023-01-17 07:34:00+00:00,189.0,7.22,194.0,8.14,12.01,47.59359,-54.27349
2023-01-17 07:44:00+00:00,185.0,7.67,184.0,8.96,12.01,47.59359,-54.27349
2023-01-17 07:54:00+00:00,221.0,5.61,219.0,6.69,12.01,47.59359,-54.27349
2023-01-17 08:04:00+00:00,238.0,5.8,233.0,6.67,12.01,47.59359,-54.27349
2023-01-17 08:14:00+00:00,210.0,6.4,195.0,7.67,12.09,47.59359,-54.27349
2023-01-17 08:24:00+00:00,242.0,5.43,243.0,5.98,12.09,47.59359,-54.27349
2023-01-17 08:34:00+00:00,220.0,4.78,220.0,5.44,12.09,47.59359,-54.27349
2023-01-17 08:44:00+00:00,217.0,4.27,217.0,5.08,12.09,47.59359,-54.27349
2023-01-17 08:54:00+00:00,225.0,4.58,219.0,5.09,12.09,47.59359,-54.27349
2023-01-17 09:04:00+00:00,56.0,2.51,78.0,5.74,12.09,47.59359,-54.27349
2023-01-17 09:14:01+00:00,19.0,2.15,26.0,3.23,12.01,47.59359,-54.27349
2023-01-17 09:24:01+00:00,6.0,3.46,3.0,3.84,12.01,47.59359,-54.27349
2023-01-17 09:34:01+00:00,24.0,2.13,27.0,2.3,12.01,47.59359,-54.27349
2023-01-17 09:44:01+00:00,42.0,1.38,46.0,1.9,12.01,47.59359,-54.27349
2023-01-17 09:54:01+00:00,37.0,0.95,33.0,1.33,12.01,47.59359,-54.27349
2023-01-17 10:04:01+00:00,26.0,0.93,17.0,1.23,12.01,47.59359,-54.27349
2023-01-17 10:14:01+00:00,314.0,1.04,301.0,1.26,12.01,47.59359,-54.27349
2023-01-17 10:24:01+00:00,325.0,0.84,316.0,1.19,12.01,47.59359,-54.27349
2023-01-17 10:34:01+00:00,338.0,1.41,345.0,1.72,12.01,47.59359,-54.27349
2023-01-17 10:44:01+00:00,273.0,1.69,286.0,2.23,12.01,47.59359,-54.27349
2023-01-17 10:54:01+00:00,347.0,1.64,349.0,1.91,12.01,47.59359,-54.27349
2023-01-17 11:04:01+00:00,353.0,0.74,21.0,1.66,12.01,47.59359,-54.27349
2023-01-17 11:14:00+00:00,344.0,2.81,349.0,3.09,12.01,47.59359,-54.27349
2023-01-17 11:24:00+00:00,345.0,2.64,346.0,2.88,12.01,47.59359,-54.27349
2023-01-17 11:34:00+00:00,343.0,3.22,343.0,3.41,12.01,47.59359,-54.27349
2023-01-17 11:44:00+00:00,7.0,2.43,7.0,2.57,12.01,47.59359,-54.27349
2023-01-17 11:54:00+00:00,37.0,2.6,53.0,3.02,12.01,47.59359,-54.27349
2023-01-17 12:04:00+00:00,36.0,2.99,37.0,3.18,12.01,47.59359,-54.27349
2023-01-17 12:14:00+00:00,30.0,2.33,26.0,2.5,12.01,47.59359,-54.27349
2023-01-17 12:24:00+00:00,9.0,2.21,11.0,2.32,12.01,47.59359,-54.27349
2023-01-17 12:34:00+00:00,26.0,2.95,30.0,3.08,12.01,47.59359,-54.27349
2023-01-17 12:44:00+00:00,98.0,1.49,53.0,3.68,12.01,47.59359,-54.27349
2023-01-17 12:54:00+00:00,10.0,0.69,6.0,0.87,12.01,47.59359,-54.27349
2023-01-17 13:04:00+00:00,339.0,1.02,335.0,1.17,12.01,47.59359,-54.27349
2023-01-17 13:14:00+00:00,318.0,4.17,302.0,5.67,12.01,47.59359,-54.27349
2023-01-17 13:24:00+00:00,348.0,2.22,344.0,2.52,12.01,47.59359,-54.27349
2023-01-17 13:34:00+00:00,334.0,2.11,305.0,2.98,12.01,47.59359,-54.27349
2023-01-17 13:44:00+00:00,350.0,2.29,348.0,2.41,12.01,47.59359,-54.27349
2023-01-17 13:54:00+00:00,347.0,2.93,345.0,3.01,12.01,47.59359,-54.27349
2023-01-17 14:04:00+00:00,347.0,2.78,343.0,3.04,12.01,47.59359,-54.27349
2023-01-17 14:14:01+00:00,350.0,3.2,350.0,3.4,12.17,47.59359,-54.27349
2023-01-17 14:24:01+00:00,355.0,3.29,356.0,3.4,12.17,47.59359,-54.27349
2023-01-17 14:34:01+00:00,5.0,3.72,4.0,4.1,12.17,47.59359,-54.27349
2023-01-17 14:44:01+00:00,32.0,5.14,47.0,6.51,12.17,47.59359,-54.27349
2023-01-17 14:54:01+00:00,19.0,4.44,43.0,5.64,12.17,47.59359,-54.27349
2023-01-17 15:04:01+00:00,327.0,3.67,313.0,4.68,12.17,47.59359,-54.27349
2023-01-17 15:14:01+00:00,2.0,3.36,4.0,3.49,12.17,47.59359,-54.27349
2023-01-17 15:24:01+00:00,338.0,3.46,313.0,4.63,12.17,47.59359,-54.27349
2023-01-17 15:34:01+00:00,351.0,2.88,355.0,3.15,12.17,47.59359,-54.27349
2023-01-17 15:44:01+00:00,350.0,3.74,316.0,4.71,12.17,47.59359,-54.27349
2023-01-17 15:54:01+00:00,355.0,3.57,324.0,5.21,12.17,47.59359,-54.27349
2023-01-17 16:04:01+00:00,300.0,6.07,299.0,6.61,12.17,47.59359,-54.27349
2023-01-17 16:14:00+00:00,11.0,0.98,59.0,2.03,12.17,47.59359,-54.27349
2023-01-17 16:24:00+00:00,71.0,3.89,78.0,6.14,12.17,47.59359,-54.27349
2023-01-17 16:34:00+00:00,345.0,1.47,335.0,1.77,12.17,47.59359,-54.27349
2023-01-17 16:44:00+00:00,338.0,2.33,300.0,5.72,12.17,47.59359,-54.27349
2023-01-17 16:54:00+00:00,27.0,1.95,64.0,5.1,12.17,47.59359,-54.27349
2023-01-17 17:04:00+00:00,358.0,1.69,1.0,2.03,12.17,47.59359,-54.27349
2023-01-17 17:14:00+00:00,1.0,1.6,2.0,1.79,12.33,47.59359,-54.27349
2023-01-17 17:24:00+00:00,68.0,1.2,77.0,3.48,12.33,47.59359,-54.27349
2023-01-17 17:34:00+00:00,358.0,1.92,359.0,2.42,12.33,47.59359,-54.27349
2023-01-17 17:44:00+00:00,301.0,2.94,287.0,4.99,12.33,47.59359,-54.27349
2023-01-17 17:54:00+00:00,73.0,1.29,91.0,6.0,12.33,47.59359,-54.27349
2023-01-17 18:04:00+00:00,293.0,4.06,288.0,5.32,12.33,47.59359,-54.27349
2023-01-17 18:14:00+00:00,349.0,1.49,351.0,1.66,12.17,47.59359,-54.27349
2023-01-17 18:24:00+00:00,343.0,1.47,351.0,1.72,12.17,47.59359,-54.27349
2023-01-17 18:34:00+00:00,356.0,2.21,359.0,2.51,12.17,47.59359,-54.27349
2023-01-17 18:44:00+00:00,58.0,4.86,65.0,6.75,12.17,47.59359,-54.27349
2023-01-17 18:54:00+00:00,322.0,3.14,321.0,3.96,12.17,47.59359,-54.27349
2023-01-17 19:04:00+00:00,295.0,3.38,299.0,4.59,12.17,47.59359,-54.27349
2023-01-17 19:14:01+00:00,226.0,4.35,232.0,4.67,12.09,47.59359,-54.27349
2023-01-17 19:24:01+00:00,242.0,4.13,238.0,4.56,12.09,47.59359,-54.27349
2023-01-17 19:34:01+00:00,216.0,7.12,212.0,8.55,12.09,47.59359,-54.27349
2023-01-17 19:44:01+00:00,219.0,6.1,220.0,7.98,12.09,47.59359,-54.27349
2023-01-17 19:54:01+00:00,211.0,6.88,211.0,7.46,12.09,47.59359,-54.27349
2023-01-17 20:04:01+00:00,209.0,6.03,207.0,6.48,12.09,47.59359,-54.27349
2023-01-17 20:14:00+00:00,257.0,5.53,258.0,6.18,12.01,47.59359,-54.27349
2023-01-17 20:24:00+00:00,241.0,5.46,243.0,6.32,12.01,47.59359,-54.27349
2023-01-17 20:34:00+00:00,244.0,5.82,242.0,6.6,12.01,47.59359,-54.27349
2023-01-17 20:44:00+00:00,246.0,5.47,246.0,6.65,12.01,47.59359,-54.27349
2023-01-17 20:54:00+00:00,250.0,5.04,252.0,6.64,12.01,47.59359,-54.27349
2023-01-17 21:04:00+00:00,243.0,5.11,243.0,5.76,12.01,47.59359,-54.27349
2023-01-17 21:14:00+00:00,234.0,4.96,246.0,6.97,12.01,47.59359,-54.27349
2023-01-17 21:24:00+00:00,234.0,6.39,235.0,7.17,12.01,47.59359,-54.27349
2023-01-17 21:34:00+00:00,229.0,6.06,232.0,6.63,12.01,47.59359,-54.27349
2023-01-17 21:44:00+00:00,246.0,7.24,240.0,8.03,12.01,47.59359,-54.27349
2023-01-17 21:54:00+00:00,228.0,6.63,233.0,8.22,12.01,47.59359,-54.27349
2023-01-17 22:04:00+00:00,228.0,7.86,237.0,9.54,12.01,47.59359,-54.27349
2023-01-17 22:14:00+00:00,213.0,9.19,216.0,11.15,12.01,47.59359,-54.27349
2023-01-17 22:24:00+00:00,213.0,8.23,217.0,9.75,12.01,47.59359,-54.27349
2023-01-17 22:34:00+00:00,211.0,8.13,213.0,9.01,12.01,47.59359,-54.27349
2023-01-17 22:44:00+00:00,212.0,8.48,215.0,9.65,12.01,47.59359,-54.27349
2023-01-17 22:54:00+00:00,211.0,9.54,214.0,10.85,12.01,47.59359,-54.27349
2023-01-17 23:04:00+00:00,215.0,7.97,203.0,10.34,12.01,47.59359,-54.27349
2023-01-17 23:14:01+00:00,219.0,7.18,223.0,7.81,12.01,47.59359,-54.27349
2023-01-17 23:24:01+00:00,214.0,7.41,216.0,8.17,12.01,47.59359,-54.27349
2023-01-17 23:34:01+00:00,209.0,7.74,214.0,8.82,12.01,47.59359,-54.27349
2023-01-17 23:44:01+00:00,219.0,6.78,214.0,7.68,12.01,47.59359,-54.27349
2023-01-17 23:54:01+00:00,227.0,5.7,222.0,6.97,12.01,47.59359,-54.27349
